STARLINK-30248, 57610

Orbit data source: Space-Track

STARLINK-30248, 57610 is a payload satellite owned by SpaceX/Seattle (US) in LEO that was launched on Fri, 11 Aug 2023 UTC via an FALCON 9 launch vehicle from the Air Force Eastern Test Range (AFETR). Payload-class satellites include a variety of spacecraft equipped with specific instruments for various scientific and technological missions. These include communications satellites like Starlink; space stations such as the ISS; scientific satellites like the Hubble; Earth observation satellites from companies like Planet Labs, Umbra, and HawkEye 360; GPS; miniature CubeSats for education and research; and military/defense satellites.

Loading next visibility...
Identifier
57610, 2023-119J
Orbit
LEO
Country
Flag of USUS
Related business
Manufacturer
SpaceX/Seattle
Mission
Operational Commercial Communications
Bus & Motor
STARLINK V2M, Unknown motor
Mass
730 kg wet, ~700 kg dry
Launch date (UTC)
2023-08-11 (3 years ago)
Launch vehicle
FALCON 9
Launch site
Air Force Eastern Test Range (AFETR)
Object type
Payload
Rocket body
Debris
Shape & HBR
Box + 2 Pan, 17.7 m
Radar Cross Section
33.884 m², Large (>1 m²)

Expand to show TLE details & history
Last TLE update: 9 hours ago

TLE from 9 hours ago
0 STARLINK-30248
1 57610U 23119J   26095.25521571  .00000853  00000-0  40531-4 0  9998
2 57610  43.0022 291.1691 0001391 267.2412  92.8280 15.27575543147150
Epoch: 2026-04-05T06:07Z
TLE epoch observation values (Epoch: 2026-04-05T06:07:30.637Z)
Latitude
-0.00005°
Longitude
5.72813°
Altitude
482.885 km
Speed
7.626 km/s
True Right ascension
19h 24m 40s
True Declination
0° 00' 00"
Sunlit
Object was in daylight at epoch
Visualization orbit readout
Latitude
Unknown
Longitude
Unknown
Altitude
Unknown
Speed
Unknown
Apparent Right ascension
Unknown
Apparent Declination
Unknown
Sunlit
N/A
Visualization observer readout
Local Sidereal Time
20:51:38
Azimuth
Unknown
Elevation
Unknown
Doppler factor
Unknown
Orbital elements
Apogee altitude
485.962 km
Perigee altitude
484.053 km
Semi-major axis
6,863.144 km
Eccentricity
0.00014
Inclination
43.0022°
RAAN
291.1691°
Arg. of periapsis
267.2412°
True anomaly
92.84392°
Mean anomaly
92.828°
Eccentric anomaly
92.83596°
Mean motion
3.81732 °/min
Orbital period
94.31 mins
BSTAR
0.000040531
Loading maneuver chart data...
Computing Atmospheric mass density...
Loading historical data...
Loading historical data...
Loading historical data...
Loading historical data...
Loading historical data...
Loading historical data...
Loading historical data...

Documentation

Showing up to 5 results
|